Time,TemperatureF,DewpointF,PressureIn,WindDirection,WindDirectionDegrees,WindSpeedMPH,WindSpeedGustMPH,Humidity,HourlyPrecipIn,Conditions,Clouds,dailyrainin,SoftwareType,DateUTC
2013-02-07 00:00:00,42.6,41.0,29.35,SSW,210,2.7,2.7,94,0.00,,---,0.00,VWS V14.01,2013-02-07 08:00:00,
2013-02-07 00:05:00,42.6,41.0,29.35,SE,143,0.0,0.0,94,0.00,,---,0.00,VWS V14.01,2013-02-07 08:05:00,
2013-02-07 00:10:00,42.6,41.0,29.35,East,91,2.7,2.7,94,0.00,,---,0.00,VWS V14.01,2013-02-07 08:10:00,
2013-02-07 00:15:00,42.6,41.0,29.35,East,91,2.7,2.7,94,0.00,,---,0.00,VWS V14.01,2013-02-07 08:15:00,
2013-02-07 00:20:00,42.6,41.0,29.35,East,91,2.7,2.7,94,0.00,,---,0.00,VWS V14.01,2013-02-07 08:20:00,
2013-02-07 00:25:00,42.6,41.0,29.35,SE,133,0.0,0.0,94,0.00,,---,0.00,VWS V14.01,2013-02-07 08:25:00,
2013-02-07 00:30:00,42.6,41.0,29.35,SE,144,0.0,0.0,94,0.00,,---,0.00,VWS V14.01,2013-02-07 08:30:00,
2013-02-07 00:35:00,42.6,41.0,29.35,SW,229,3.1,3.1,94,0.00,,---,0.00,VWS V14.01,2013-02-07 08:35:00,
2013-02-07 00:40:00,42.6,41.0,29.35,SSW,210,0.0,2.7,94,0.00,,---,0.00,VWS V14.01,2013-02-07 08:40:00,
2013-02-07 00:45:00,42.6,41.0,29.35,SSW,210,0.0,0.0,94,0.00,,---,0.00,VWS V14.01,2013-02-07 08:45:00,
2013-02-07 00:50:00,42.6,41.0,29.35,WSW,254,0.0,0.0,94,0.00,,---,0.00,VWS V14.01,2013-02-07 08:50:00,
2013-02-07 00:55:00,45.5,38.7,29.35,SSW,209,0.0,0.0,77,0.00,,---,0.00,VWS V14.01,2013-02-07 08:55:00,
2013-02-07 01:00:00,45.5,38.7,29.35,SSW,206,2.7,2.7,77,0.00,,---,0.00,VWS V14.01,2013-02-07 09:00:00,
2013-02-07 01:05:00,45.5,38.7,29.35,SSW,206,0.0,0.0,77,0.00,,---,0.00,VWS V14.01,2013-02-07 09:05:00,
2013-02-07 01:10:00,45.5,38.7,29.35,NNE,27,0.0,0.0,77,0.00,,---,0.00,VWS V14.01,2013-02-07 09:10:00,
2013-02-07 01:15:00,45.0,39.8,29.35,East,86,3.1,3.1,82,0.00,,---,0.00,VWS V14.01,2013-02-07 09:15:00,
2013-02-07 01:21:00,44.8,39.9,29.35,West,273,2.7,2.7,83,0.00,,---,0.00,VWS V14.01,2013-02-07 09:21:00,
2013-02-07 01:26:00,45.1,40.3,29.35,West,264,2.2,2.7,83,0.00,,---,0.00,VWS V14.01,2013-02-07 09:26:00,
2013-02-07 01:31:00,45.3,40.2,29.38,WNW,287,5.8,6.3,82,0.00,,---,0.00,VWS V14.01,2013-02-07 09:31:00,
2013-02-07 01:36:00,45.0,40.4,29.38,SSW,199,6.3,6.3,84,0.00,,---,0.00,VWS V14.01,2013-02-07 09:36:00,
2013-02-07 01:40:00,44.6,40.4,29.38,SW,219,5.8,8.1,85,0.04,,---,0.04,VWS V14.01,2013-02-07 09:40:00,
2013-02-07 01:45:00,44.6,40.4,29.38,SSW,208,5.4,6.3,85,0.04,,---,0.04,VWS V14.01,2013-02-07 09:45:00,
2013-02-07 01:50:00,44.1,40.7,29.38,SSW,213,2.7,2.7,88,0.04,,---,0.04,VWS V14.01,2013-02-07 09:50:00,
2013-02-07 01:55:00,43.9,40.6,29.38,South,181,8.1,10.5,88,0.04,,---,0.04,VWS V14.01,2013-02-07 09:55:00,
2013-02-07 02:00:00,43.5,40.5,29.41,SW,219,4.0,8.1,89,0.12,,---,0.12,VWS V14.01,2013-02-07 10:00:00,
2013-02-07 02:05:00,43.3,40.3,29.41,SW,222,2.7,3.1,89,0.12,,---,0.12,VWS V14.01,2013-02-07 10:05:00,
2013-02-07 02:10:00,43.3,40.3,29.41,SE,139,4.0,6.3,89,0.12,,---,0.12,VWS V14.01,2013-02-07 10:10:00,
2013-02-07 02:15:00,43.3,40.3,29.41,West,267,7.2,7.2,89,0.12,,---,0.12,VWS V14.01,2013-02-07 10:15:00,
2013-02-07 02:20:00,43.3,40.3,29.41,SSW,194,0.0,0.0,89,0.12,,---,0.12,VWS V14.01,2013-02-07 10:20:00,
2013-02-07 02:25:00,42.4,39.7,29.41,SE,135,3.6,6.7,90,0.12,,---,0.12,VWS V14.01,2013-02-07 10:25:00,
2013-02-07 02:30:00,42.4,40.0,29.41,WNW,287,2.7,3.1,91,0.12,,---,0.12,VWS V14.01,2013-02-07 10:30:00,
2013-02-07 02:35:00,42.4,40.0,29.41,WSW,256,3.1,3.1,91,0.12,,---,0.12,VWS V14.01,2013-02-07 10:35:00,
2013-02-07 02:40:00,42.4,40.0,29.41,South,185,2.7,5.8,91,0.08,,---,0.12,VWS V14.01,2013-02-07 10:40:00,
2013-02-07 02:45:00,42.4,40.0,29.41,SSW,213,2.7,6.3,91,0.08,,---,0.12,VWS V14.01,2013-02-07 10:45:00,
2013-02-07 02:50:00,42.3,39.8,29.41,SE,142,0.0,3.1,91,0.08,,---,0.12,VWS V14.01,2013-02-07 10:50:00,
2013-02-07 02:55:00,42.3,39.8,29.41,SW,236,0.0,3.1,91,0.08,,---,0.12,VWS V14.01,2013-02-07 10:55:00,
2013-02-07 03:00:00,42.1,39.7,29.41,SW,232,5.4,5.4,91,0.00,,---,0.12,VWS V14.01,2013-02-07 11:00:00,
2013-02-07 03:05:00,42.1,39.7,29.41,SSE,152,2.2,5.4,91,0.00,,---,0.12,VWS V14.01,2013-02-07 11:05:00,
2013-02-07 03:10:00,42.1,39.7,29.41,South,180,3.1,4.0,91,0.00,,---,0.12,VWS V14.01,2013-02-07 11:10:00,
2013-02-07 03:15:00,42.1,39.7,29.41,NNW,335,3.1,3.1,91,0.00,,---,0.12,VWS V14.01,2013-02-07 11:15:00,
2013-02-07 03:20:00,42.1,39.7,29.41,SSE,152,2.7,4.0,91,0.00,,---,0.12,VWS V14.01,2013-02-07 11:20:00,
2013-02-07 03:25:00,42.1,39.7,29.41,West,279,2.7,3.1,91,0.00,,---,0.12,VWS V14.01,2013-02-07 11:25:00,
2013-02-07 03:30:00,42.1,39.7,29.44,South,172,2.7,4.0,91,0.00,,---,0.12,VWS V14.01,2013-02-07 11:30:00,
2013-02-07 03:35:00,42.1,39.7,29.44,North,357,2.2,5.4,91,0.00,,---,0.12,VWS V14.01,2013-02-07 11:35:00,
2013-02-07 03:40:00,42.1,39.7,29.44,West,262,2.2,3.1,91,0.00,,---,0.12,VWS V14.01,2013-02-07 11:40:00,
2013-02-07 03:45:00,42.1,39.7,29.44,ENE,57,0.0,3.1,91,0.04,,---,0.16,VWS V14.01,2013-02-07 11:45:00,
2013-02-07 03:50:00,42.1,39.7,29.44,WSW,241,0.0,2.7,91,0.04,,---,0.16,VWS V14.01,2013-02-07 11:50:00,
2013-02-07 03:55:00,42.1,39.7,29.44,SSE,165,0.0,0.0,91,0.04,,---,0.16,VWS V14.01,2013-02-07 11:55:00,
2013-02-07 04:00:00,42.1,39.7,29.44,East,83,0.0,0.0,91,0.04,,---,0.16,VWS V14.01,2013-02-07 12:00:00,
2013-02-07 04:05:00,42.1,39.7,29.44,SSE,158,0.0,0.0,91,0.04,,---,0.16,VWS V14.01,2013-02-07 12:05:00,
2013-02-07 04:10:00,42.1,39.7,29.44,WSW,256,3.1,4.5,91,0.04,,---,0.16,VWS V14.01,2013-02-07 12:10:00,
2013-02-07 04:15:00,42.1,39.7,29.44,SW,235,2.2,2.7,91,0.04,,---,0.16,VWS V14.01,2013-02-07 12:15:00,
2013-02-07 04:20:00,42.1,39.7,29.44,ENE,59,0.0,3.1,91,0.04,,---,0.16,VWS V14.01,2013-02-07 12:20:00,
2013-02-07 04:25:00,42.1,39.7,29.44,East,86,0.0,0.0,91,0.04,,---,0.16,VWS V14.01,2013-02-07 12:25:00,
2013-02-07 04:30:00,42.1,39.7,29.44,SSE,149,0.0,0.0,91,0.04,,---,0.16,VWS V14.01,2013-02-07 12:30:00,
2013-02-07 04:35:00,42.1,39.7,29.47,ENE,65,2.2,2.7,91,0.04,,---,0.16,VWS V14.01,2013-02-07 12:35:00,
2013-02-07 04:40:00,42.1,39.7,29.47,SE,129,2.7,2.7,91,0.04,,---,0.16,VWS V14.01,2013-02-07 12:40:00,
2013-02-07 04:45:00,42.1,39.7,29.47,SSE,168,0.0,3.1,91,0.00,,---,0.16,VWS V14.01,2013-02-07 12:45:00,
2013-02-07 04:50:00,42.1,39.7,29.47,WSW,251,5.4,5.4,91,0.00,,---,0.16,VWS V14.01,2013-02-07 12:50:00,
2013-02-07 04:55:00,42.1,39.7,29.47,East,85,4.0,4.0,91,0.00,,---,0.16,VWS V14.01,2013-02-07 12:55:00,
2013-02-07 05:00:00,42.1,39.7,29.47,NE,53,2.7,4.0,91,0.00,,---,0.16,VWS V14.01,2013-02-07 13:00:00,
2013-02-07 05:05:00,42.1,39.7,29.47,SW,214,6.3,6.3,91,0.00,,---,0.16,VWS V14.01,2013-02-07 13:05:00,
2013-02-07 05:10:00,42.1,39.7,29.47,SSE,153,3.1,6.3,91,0.00,,---,0.16,VWS V14.01,2013-02-07 13:10:00,
2013-02-07 05:15:00,42.1,39.7,29.47,NNW,348,0.0,2.7,91,0.00,,---,0.16,VWS V14.01,2013-02-07 13:15:00,
2013-02-07 05:20:00,42.1,39.7,29.44,SSW,213,4.0,5.4,91,0.00,,---,0.16,VWS V14.01,2013-02-07 13:20:00,
2013-02-07 05:25:00,42.1,39.7,29.44,ESE,118,3.1,6.3,91,0.00,,---,0.16,VWS V14.01,2013-02-07 13:25:00,
2013-02-07 05:30:00,42.1,39.7,29.47,WSW,241,4.0,4.0,91,0.00,,---,0.16,VWS V14.01,2013-02-07 13:30:00,
2013-02-07 05:35:00,42.1,39.7,29.47,WSW,243,3.6,4.9,91,0.00,,---,0.16,VWS V14.01,2013-02-07 13:35:00,
2013-02-07 05:40:00,42.1,39.7,29.47,SSW,207,3.1,3.1,91,0.00,,---,0.16,VWS V14.01,2013-02-07 13:40:00,
2013-02-07 05:45:00,42.1,39.7,29.47,South,175,2.7,2.7,91,0.00,,---,0.16,VWS V14.01,2013-02-07 13:45:00,
2013-02-07 05:50:00,42.1,39.7,29.47,WSW,256,2.7,2.7,91,0.00,,---,0.16,VWS V14.01,2013-02-07 13:50:00,
2013-02-07 05:55:00,42.1,39.7,29.47,WSW,245,3.6,5.4,91,0.00,,---,0.16,VWS V14.01,2013-02-07 13:55:00,
2013-02-07 06:00:00,42.1,39.7,29.47,SSE,154,4.0,4.0,91,0.00,,---,0.16,VWS V14.01,2013-02-07 14:00:00,
2013-02-07 06:05:00,42.1,39.7,29.47,SE,141,2.7,3.1,91,0.00,,---,0.16,VWS V14.01,2013-02-07 14:05:00,
2013-02-07 06:10:00,42.1,39.7,29.47,SSE,149,2.2,2.2,91,0.00,,---,0.16,VWS V14.01,2013-02-07 14:10:00,
2013-02-07 06:15:00,42.1,39.7,29.47,SSE,149,2.2,2.2,91,0.00,,---,0.16,VWS V14.01,2013-02-07 14:15:00,
2013-02-07 06:20:00,42.1,39.7,29.47,SSW,200,2.2,2.2,91,0.00,,---,0.16,VWS V14.01,2013-02-07 14:20:00,
2013-02-07 06:25:00,42.1,39.7,29.47,SSW,205,0.0,0.0,91,0.00,,---,0.16,VWS V14.01,2013-02-07 14:25:00,
2013-02-07 06:30:00,42.1,39.7,29.47,SW,231,0.0,0.0,91,0.00,,---,0.16,VWS V14.01,2013-02-07 14:30:00,
2013-02-07 06:35:00,42.1,39.7,29.47,SE,136,2.7,2.7,91,0.00,,---,0.16,VWS V14.01,2013-02-07 14:35:00,
2013-02-07 06:40:00,42.1,39.7,29.47,SW,227,0.0,0.0,91,0.00,,---,0.16,VWS V14.01,2013-02-07 14:40:00,
2013-02-07 06:45:00,42.1,39.7,29.47,SW,227,0.0,0.0,91,0.00,,---,0.16,VWS V14.01,2013-02-07 14:45:00,
2013-02-07 06:50:00,42.1,39.7,29.47,South,172,2.7,2.7,91,0.00,,---,0.16,VWS V14.01,2013-02-07 14:50:00,
2013-02-07 06:55:00,42.1,39.7,29.47,South,186,4.0,4.0,91,0.00,,---,0.16,VWS V14.01,2013-02-07 14:55:00,
2013-02-07 07:00:00,42.1,39.7,29.47,SSW,195,2.2,2.2,91,0.00,,---,0.16,VWS V14.01,2013-02-07 15:00:00,
2013-02-07 07:05:00,42.1,39.7,29.47,South,190,2.7,2.7,91,0.00,,---,0.16,VWS V14.01,2013-02-07 15:05:00,
2013-02-07 07:10:00,42.1,39.7,29.47,SSE,156,0.0,0.0,91,0.00,,---,0.16,VWS V14.01,2013-02-07 15:10:00,
2013-02-07 07:15:00,42.1,39.7,29.50,ESE,117,0.0,0.0,91,0.00,,---,0.16,VWS V14.01,2013-02-07 15:15:00,
2013-02-07 07:20:00,42.1,39.7,29.50,ESE,117,0.0,0.0,91,0.00,,---,0.16,VWS V14.01,2013-02-07 15:20:00,
2013-02-07 07:25:00,40.6,36.8,29.50,ESE,117,0.0,0.0,86,0.00,,---,0.16,VWS V14.01,2013-02-07 15:25:00,
2013-02-07 07:30:00,40.6,36.8,29.50,WSW,258,0.0,0.0,86,0.00,,---,0.16,VWS V14.01,2013-02-07 15:30:00,
2013-02-07 07:35:00,40.6,36.8,29.50,SSW,194,0.0,0.0,86,0.00,,---,0.16,VWS V14.01,2013-02-07 15:35:00,
2013-02-07 07:40:00,40.6,36.8,29.50,SW,217,2.7,2.7,86,0.00,,---,0.16,VWS V14.01,2013-02-07 15:40:00,
2013-02-07 07:45:00,40.6,36.8,29.50,WSW,243,0.0,0.0,86,0.00,,---,0.16,VWS V14.01,2013-02-07 15:45:00,
2013-02-07 07:50:00,40.6,36.8,29.50,NW,313,3.1,3.1,86,0.00,,---,0.16,VWS V14.01,2013-02-07 15:50:00,
2013-02-07 07:55:00,40.6,36.8,29.50,NNE,27,0.0,0.0,86,0.00,,---,0.16,VWS V14.01,2013-02-07 15:55:00,
2013-02-07 08:00:00,40.6,36.8,29.50,SW,231,0.0,0.0,86,0.00,,---,0.16,VWS V14.01,2013-02-07 16:00:00,
2013-02-07 08:05:00,40.6,36.8,29.50,West,262,2.7,2.7,86,0.00,,---,0.16,VWS V14.01,2013-02-07 16:05:00,
2013-02-07 08:10:00,40.6,36.8,29.50,West,260,5.8,5.8,86,0.00,,---,0.16,VWS V14.01,2013-02-07 16:10:00,
2013-02-07 08:15:00,40.6,36.8,29.50,West,260,5.8,5.8,86,0.00,,---,0.16,VWS V14.01,2013-02-07 16:15:00,
2013-02-07 08:20:00,40.6,36.8,29.50,ESE,111,0.0,0.0,86,0.00,,---,0.16,VWS V14.01,2013-02-07 16:20:00,
2013-02-07 08:25:00,40.6,36.8,29.50,WSW,237,3.6,3.6,86,0.00,,---,0.16,VWS V14.01,2013-02-07 16:25:00,
2013-02-07 08:30:00,40.6,36.8,29.50,WSW,255,0.0,0.0,86,0.00,,---,0.16,VWS V14.01,2013-02-07 16:30:00,
2013-02-07 08:35:00,40.6,36.8,29.50,SE,136,3.1,3.1,86,0.00,,---,0.16,VWS V14.01,2013-02-07 16:35:00,
2013-02-07 08:40:00,40.6,36.8,29.50,WSW,249,2.2,3.6,86,0.00,,---,0.16,VWS V14.01,2013-02-07 16:40:00,
2013-02-07 08:45:00,40.6,36.8,29.50,WSW,248,2.7,2.7,86,0.00,,---,0.16,VWS V14.01,2013-02-07 16:45:00,
2013-02-07 08:50:00,40.6,36.8,29.53,WSW,247,3.6,3.6,86,0.00,,---,0.16,VWS V14.01,2013-02-07 16:50:00,
2013-02-07 08:55:00,40.6,36.8,29.53,SW,232,3.6,3.6,86,0.00,,---,0.16,VWS V14.01,2013-02-07 16:55:00,
2013-02-07 09:00:00,40.6,36.8,29.53,WSW,241,3.6,3.6,86,0.00,,---,0.16,VWS V14.01,2013-02-07 17:00:00,
2013-02-07 09:05:00,40.6,36.8,29.53,SW,231,2.2,2.2,86,0.00,,---,0.16,VWS V14.01,2013-02-07 17:05:00,
2013-02-07 09:10:00,40.6,36.8,29.53,WSW,240,5.4,5.4,86,0.00,,---,0.16,VWS V14.01,2013-02-07 17:10:00,
2013-02-07 09:15:00,40.6,36.8,29.53,SE,146,2.7,2.7,86,0.00,,---,0.16,VWS V14.01,2013-02-07 17:15:00,
2013-02-07 09:20:00,40.6,36.8,29.53,SE,125,3.1,3.1,86,0.00,,---,0.16,VWS V14.01,2013-02-07 17:20:00,
2013-02-07 09:25:00,40.6,36.8,29.53,SE,138,3.6,3.6,86,0.00,,---,0.16,VWS V14.01,2013-02-07 17:25:00,
2013-02-07 09:30:00,40.6,36.8,29.53,SSW,202,3.1,3.1,86,0.00,,---,0.16,VWS V14.01,2013-02-07 17:30:00,
2013-02-07 09:35:00,40.6,36.8,29.53,NW,313,3.1,3.1,86,0.00,,---,0.16,VWS V14.01,2013-02-07 17:35:00,
2013-02-07 09:40:00,40.6,36.8,29.53,SSE,162,2.7,2.7,86,0.00,,---,0.16,VWS V14.01,2013-02-07 17:40:00,
2013-02-07 09:45:00,40.6,36.8,29.53,ENE,73,2.7,2.7,86,0.00,,---,0.16,VWS V14.01,2013-02-07 17:45:00,
2013-02-07 09:50:00,40.6,36.8,29.53,SSE,162,0.0,0.0,86,0.00,,---,0.16,VWS V14.01,2013-02-07 17:50:00,
2013-02-07 09:55:00,40.6,36.8,29.53,SSE,168,2.2,2.2,86,0.00,,---,0.16,VWS V14.01,2013-02-07 17:55:00,
2013-02-07 10:00:00,40.6,36.8,29.53,NW,324,0.0,0.0,86,0.00,,---,0.16,VWS V14.01,2013-02-07 18:00:00,
2013-02-07 10:05:00,40.6,36.8,29.53,SSW,195,0.0,0.0,86,0.00,,---,0.16,VWS V14.01,2013-02-07 18:05:00,
2013-02-07 10:10:00,40.6,36.8,29.53,WSW,244,0.0,0.0,86,0.00,,---,0.16,VWS V14.01,2013-02-07 18:10:00,
2013-02-07 10:15:00,40.6,36.8,29.53,WSW,244,0.0,0.0,86,0.00,,---,0.16,VWS V14.01,2013-02-07 18:15:00,
2013-02-07 10:20:00,40.6,36.8,29.53,ENE,75,0.0,0.0,86,0.00,,---,0.16,VWS V14.01,2013-02-07 18:20:00,
2013-02-07 10:25:00,40.6,36.8,29.53,SW,226,3.1,3.1,86,0.00,,---,0.16,VWS V14.01,2013-02-07 18:25:00,
2013-02-07 10:30:00,40.6,36.8,29.53,SW,226,3.1,3.1,86,0.00,,---,0.16,VWS V14.01,2013-02-07 18:30:00,
2013-02-07 10:35:00,40.6,36.8,29.53,SSE,168,6.3,6.3,86,0.00,,---,0.16,VWS V14.01,2013-02-07 18:35:00,
2013-02-07 10:40:00,40.6,36.8,29.53,South,176,4.0,4.0,86,0.00,,---,0.16,VWS V14.01,2013-02-07 18:40:00,
2013-02-07 10:45:00,40.6,36.8,29.53,ESE,122,4.0,4.0,86,0.00,,---,0.16,VWS V14.01,2013-02-07 18:45:00,
2013-02-07 10:50:00,40.6,36.8,29.56,South,171,2.7,4.9,86,0.00,,---,0.16,VWS V14.01,2013-02-07 18:50:00,
2013-02-07 10:55:00,40.6,36.8,29.56,SSE,151,4.9,4.9,86,0.00,,---,0.16,VWS V14.01,2013-02-07 18:55:00,
2013-02-07 11:00:00,40.6,36.8,29.56,West,272,4.0,4.0,86,0.00,,---,0.16,VWS V14.01,2013-02-07 19:00:00,
2013-02-07 11:05:00,40.6,36.8,29.56,SSE,154,6.3,6.3,86,0.00,,---,0.16,VWS V14.01,2013-02-07 19:05:00,
2013-02-07 11:10:00,40.6,36.8,29.56,WNW,288,4.9,4.9,86,0.00,,---,0.16,VWS V14.01,2013-02-07 19:10:00,
2013-02-07 11:15:00,40.6,36.8,29.56,WSW,247,0.0,0.0,86,0.00,,---,0.16,VWS V14.01,2013-02-07 19:15:00,
2013-02-07 11:20:00,40.6,36.8,29.53,West,265,4.0,4.0,86,0.00,,---,0.16,VWS V14.01,2013-02-07 19:20:00,
2013-02-07 11:25:00,40.6,36.8,29.53,SSE,154,3.1,3.1,86,0.00,,---,0.16,VWS V14.01,2013-02-07 19:25:00,
2013-02-07 11:30:00,40.6,36.8,29.53,WSW,244,4.0,5.4,86,0.00,,---,0.16,VWS V14.01,2013-02-07 19:30:00,
2013-02-07 11:35:00,40.6,36.8,29.56,SSW,213,2.7,2.7,86,0.00,,---,0.16,VWS V14.01,2013-02-07 19:35:00,
2013-02-07 11:40:00,40.6,36.8,29.56,West,262,6.3,6.3,86,0.00,,---,0.16,VWS V14.01,2013-02-07 19:40:00,
2013-02-07 11:45:00,40.6,36.8,29.56,West,272,4.0,4.0,86,0.00,,---,0.16,VWS V14.01,2013-02-07 19:45:00,
2013-02-07 11:50:00,40.6,36.8,29.53,SW,217,2.7,2.7,86,0.00,,---,0.16,VWS V14.01,2013-02-07 19:50:00,
2013-02-07 11:55:00,40.6,36.8,29.53,SE,138,3.1,3.6,86,0.00,,---,0.16,VWS V14.01,2013-02-07 19:55:00,
2013-02-07 12:00:00,40.6,36.8,29.53,SW,214,5.4,5.4,86,0.00,,---,0.16,VWS V14.01,2013-02-07 20:00:00,
2013-02-07 12:05:00,40.6,36.8,29.53,SSW,204,3.6,3.6,86,0.00,,---,0.16,VWS V14.01,2013-02-07 20:05:00,
2013-02-07 12:10:00,40.6,36.8,29.53,SSW,213,5.8,5.8,86,0.00,,---,0.16,VWS V14.01,2013-02-07 20:10:00,
2013-02-07 12:15:00,40.6,36.8,29.53,SW,218,6.3,6.3,86,0.00,,---,0.16,VWS V14.01,2013-02-07 20:15:00,
2013-02-07 12:20:00,47.7,36.9,29.53,ESE,108,3.6,3.6,66,0.00,,---,0.16,VWS V14.01,2013-02-07 20:20:00,
2013-02-07 12:25:00,47.7,36.9,29.53,WSW,256,2.2,2.2,66,0.00,,---,0.16,VWS V14.01,2013-02-07 20:25:00,
2013-02-07 12:30:00,47.7,36.9,29.53,WNW,293,3.6,3.6,66,0.00,,---,0.16,VWS V14.01,2013-02-07 20:30:00,
2013-02-07 12:35:00,47.7,36.9,29.53,West,271,4.0,4.0,66,0.00,,---,0.16,VWS V14.01,2013-02-07 20:35:00,
2013-02-07 12:40:00,47.7,36.9,29.53,SW,220,2.7,2.7,66,0.00,,---,0.16,VWS V14.01,2013-02-07 20:40:00,
2013-02-07 12:45:00,48.7,36.3,29.53,South,186,0.0,0.0,62,0.00,,---,0.16,VWS V14.01,2013-02-07 20:45:00,
2013-02-07 12:50:00,48.7,36.3,29.53,SSE,154,4.0,4.0,62,0.00,,---,0.16,VWS V14.01,2013-02-07 20:50:00,
2013-02-07 12:55:00,50.0,37.5,29.53,ESE,119,0.0,0.0,62,0.00,,---,0.16,VWS V14.01,2013-02-07 20:55:00,
2013-02-07 13:00:00,50.0,37.5,29.53,SSE,166,0.0,0.0,62,0.00,,---,0.16,VWS V14.01,2013-02-07 21:00:00,
2013-02-07 13:05:00,50.0,37.5,29.53,SW,219,4.0,4.0,62,0.00,,---,0.16,VWS V14.01,2013-02-07 21:05:00,
2013-02-07 13:10:00,50.7,37.8,29.53,SW,232,3.6,3.6,61,0.00,,---,0.16,VWS V14.01,2013-02-07 21:10:00,
2013-02-07 13:15:00,50.7,37.8,29.53,WNW,285,5.8,5.8,61,0.00,,---,0.16,VWS V14.01,2013-02-07 21:15:00,
2013-02-07 13:20:00,50.9,37.5,29.53,West,264,6.3,6.3,60,0.00,,---,0.16,VWS V14.01,2013-02-07 21:20:00,
2013-02-07 13:25:00,50.9,37.5,29.53,SW,224,3.1,4.9,60,0.00,,---,0.16,VWS V14.01,2013-02-07 21:25:00,
2013-02-07 13:30:00,50.9,37.5,29.53,West,268,3.6,4.0,60,0.00,,---,0.16,VWS V14.01,2013-02-07 21:30:00,
2013-02-07 13:35:00,50.9,37.5,29.53,SSW,204,5.8,5.8,60,0.00,,---,0.16,VWS V14.01,2013-02-07 21:35:00,
2013-02-07 13:40:00,50.9,37.5,29.53,South,178,3.1,4.0,60,0.00,,---,0.16,VWS V14.01,2013-02-07 21:40:00,
2013-02-07 13:45:00,51.3,37.4,29.53,WNW,287,3.1,3.1,59,0.00,,---,0.16,VWS V14.01,2013-02-07 21:45:00,
2013-02-07 13:50:00,50.0,34.9,29.53,West,260,3.6,3.6,56,0.00,,---,0.16,VWS V14.01,2013-02-07 21:50:00,
2013-02-07 13:55:00,50.0,34.9,29.53,SSW,203,0.0,0.0,56,0.00,,---,0.16,VWS V14.01,2013-02-07 21:55:00,
2013-02-07 14:00:00,50.0,34.9,29.53,WSW,251,0.0,0.0,56,0.00,,---,0.16,VWS V14.01,2013-02-07 22:00:00,
2013-02-07 14:05:00,51.1,37.3,29.53,SW,235,3.1,3.1,59,0.00,,---,0.16,VWS V14.01,2013-02-07 22:05:00,
2013-02-07 14:10:00,51.3,37.0,29.53,SW,221,3.1,3.1,58,0.00,,---,0.16,VWS V14.01,2013-02-07 22:10:00,
2013-02-07 14:15:00,51.3,37.0,29.53,NE,36,0.0,0.0,58,0.00,,---,0.16,VWS V14.01,2013-02-07 22:15:00,
2013-02-07 14:20:00,51.3,37.0,29.53,SW,223,5.4,5.4,58,0.00,,---,0.16,VWS V14.01,2013-02-07 22:20:00,
2013-02-07 14:25:00,51.3,37.0,29.53,SW,221,0.0,0.0,58,0.00,,---,0.16,VWS V14.01,2013-02-07 22:25:00,
2013-02-07 14:30:00,51.3,37.0,29.53,WSW,258,2.2,2.2,58,0.00,,---,0.16,VWS V14.01,2013-02-07 22:30:00,
2013-02-07 14:35:00,51.3,37.0,29.56,West,271,0.0,0.0,58,0.00,,---,0.16,VWS V14.01,2013-02-07 22:35:00,
2013-02-07 14:40:00,51.4,36.3,29.56,SW,216,2.2,2.2,56,0.00,,---,0.16,VWS V14.01,2013-02-07 22:40:00,
2013-02-07 14:45:00,51.6,36.5,29.56,West,270,4.9,4.9,56,0.00,,---,0.16,VWS V14.01,2013-02-07 22:45:00,
2013-02-07 14:50:00,51.3,36.1,29.56,West,263,3.6,3.6,56,0.00,,---,0.16,VWS V14.01,2013-02-07 22:50:00,
2013-02-07 14:55:00,51.3,36.1,29.56,West,279,5.4,5.4,56,0.00,,---,0.16,VWS V14.01,2013-02-07 22:55:00,
2013-02-07 15:00:00,50.5,34.5,29.56,West,265,7.6,7.6,54,0.00,,---,0.16,VWS V14.01,2013-02-07 23:00:00,
2013-02-07 15:05:00,50.5,34.5,29.56,West,265,2.7,2.7,54,0.00,,---,0.16,VWS V14.01,2013-02-07 23:05:00,
2013-02-07 15:10:00,50.5,34.5,29.56,West,259,3.6,3.6,54,0.00,,---,0.16,VWS V14.01,2013-02-07 23:10:00,
2013-02-07 15:15:00,51.1,36.4,29.56,WNW,299,0.0,0.0,57,0.00,,---,0.16,VWS V14.01,2013-02-07 23:15:00,
2013-02-07 15:20:00,50.9,35.3,29.56,SW,235,3.1,3.1,55,0.00,,---,0.16,VWS V14.01,2013-02-07 23:20:00,
2013-02-07 15:25:00,50.7,35.2,29.56,SW,227,4.0,4.0,55,0.00,,---,0.16,VWS V14.01,2013-02-07 23:25:00,
2013-02-07 15:30:00,50.7,35.2,29.56,SW,227,4.0,4.0,55,0.00,,---,0.16,VWS V14.01,2013-02-07 23:30:00,
2013-02-07 15:35:00,50.7,35.2,29.56,West,275,3.1,3.1,55,0.00,,---,0.16,VWS V14.01,2013-02-07 23:35:00,
2013-02-07 15:40:00,51.1,36.8,29.56,WSW,239,0.0,0.0,58,0.00,,---,0.16,VWS V14.01,2013-02-07 23:40:00,
2013-02-07 15:45:00,51.1,36.8,29.56,WSW,241,0.0,0.0,58,0.00,,---,0.16,VWS V14.01,2013-02-07 23:45:00,
2013-02-07 15:50:00,50.7,36.1,29.56,WSW,256,0.0,0.0,57,0.00,,---,0.16,VWS V14.01,2013-02-07 23:50:00,
2013-02-07 15:55:00,50.7,36.1,29.56,WSW,242,0.0,0.0,57,0.00,,---,0.16,VWS V14.01,2013-02-07 23:55:00,
2013-02-07 16:00:00,50.2,35.1,29.56,WSW,242,0.0,0.0,56,0.00,,---,0.16,VWS V14.01,2013-02-08 00:00:00,
2013-02-07 16:05:00,50.2,35.1,29.56,SE,142,0.0,0.0,56,0.00,,---,0.16,VWS V14.01,2013-02-08 00:05:00,
2013-02-07 16:10:00,50.2,35.1,29.56,West,274,0.0,0.0,56,0.00,,---,0.16,VWS V14.01,2013-02-08 00:10:00,
2013-02-07 16:15:00,50.2,35.1,29.56,West,274,0.0,0.0,56,0.00,,---,0.16,VWS V14.01,2013-02-08 00:15:00,
2013-02-07 16:20:00,50.2,35.1,29.56,West,278,0.0,0.0,56,0.00,,---,0.16,VWS V14.01,2013-02-08 00:20:00,
2013-02-07 16:25:00,50.2,35.1,29.56,WSW,252,2.2,2.2,56,0.00,,---,0.16,VWS V14.01,2013-02-08 00:25:00,
2013-02-07 16:30:00,50.2,35.1,29.56,South,180,0.0,0.0,56,0.00,,---,0.16,VWS V14.01,2013-02-08 00:30:00,
2013-02-07 16:35:00,49.1,35.4,29.56,South,180,0.0,0.0,59,0.00,,---,0.16,VWS V14.01,2013-02-08 00:35:00,
2013-02-07 16:40:00,49.1,35.4,29.56,South,180,0.0,0.0,59,0.00,,---,0.16,VWS V14.01,2013-02-08 00:40:00,
2013-02-07 16:45:00,49.1,35.4,29.56,SSW,202,0.0,0.0,59,0.00,,---,0.16,VWS V14.01,2013-02-08 00:45:00,
2013-02-07 16:50:00,49.1,35.4,29.59,SSW,202,0.0,0.0,59,0.00,,---,0.16,VWS V14.01,2013-02-08 00:50:00,
2013-02-07 16:55:00,47.5,35.1,29.59,SSW,202,0.0,0.0,62,0.00,,---,0.16,VWS V14.01,2013-02-08 00:55:00,
2013-02-07 17:00:00,47.5,35.1,29.59,SSW,202,0.0,0.0,62,0.00,,---,0.16,VWS V14.01,2013-02-08 01:00:00,
2013-02-07 17:05:00,47.5,35.1,29.59,SSW,202,0.0,0.0,62,0.00,,---,0.16,VWS V14.01,2013-02-08 01:05:00,
2013-02-07 17:10:00,47.5,35.1,29.59,SSW,202,0.0,0.0,62,0.00,,---,0.16,VWS V14.01,2013-02-08 01:10:00,
2013-02-07 17:15:00,47.5,35.1,29.59,SSW,202,0.0,0.0,62,0.00,,---,0.16,VWS V14.01,2013-02-08 01:15:00,
2013-02-07 17:20:00,47.5,35.1,29.59,SSW,202,0.0,0.0,62,0.00,,---,0.16,VWS V14.01,2013-02-08 01:20:00,
2013-02-07 17:25:00,47.5,35.1,29.59,SSW,202,0.0,0.0,62,0.00,,---,0.16,VWS V14.01,2013-02-08 01:25:00,
2013-02-07 17:30:00,47.5,35.1,29.59,SSW,202,0.0,0.0,62,0.00,,---,0.16,VWS V14.01,2013-02-08 01:30:00,
2013-02-07 17:35:00,47.5,35.1,29.59,SSW,202,0.0,0.0,62,0.00,,---,0.16,VWS V14.01,2013-02-08 01:35:00,
2013-02-07 17:40:00,47.5,35.1,29.59,SSW,202,0.0,0.0,62,0.00,,---,0.16,VWS V14.01,2013-02-08 01:40:00,
2013-02-07 17:45:00,47.5,35.1,29.59,SSW,202,0.0,0.0,62,0.00,,---,0.16,VWS V14.01,2013-02-08 01:45:00,
2013-02-07 17:50:00,47.5,35.1,29.59,SSW,202,0.0,0.0,62,0.00,,---,0.16,VWS V14.01,2013-02-08 01:50:00,
2013-02-07 17:55:00,47.5,35.1,29.59,SSW,202,0.0,0.0,62,0.00,,---,0.16,VWS V14.01,2013-02-08 01:55:00,
2013-02-07 18:00:00,47.5,35.1,29.59,SSW,202,0.0,0.0,62,0.00,,---,0.16,VWS V14.01,2013-02-08 02:00:00,
2013-02-07 18:05:00,47.5,35.1,29.59,SSW,202,0.0,0.0,62,0.00,,---,0.16,VWS V14.01,2013-02-08 02:05:00,
2013-02-07 18:10:00,47.5,35.1,29.59,SSW,202,0.0,0.0,62,0.00,,---,0.16,VWS V14.01,2013-02-08 02:10:00,
2013-02-07 18:15:00,47.5,35.1,29.59,SSW,202,0.0,0.0,62,0.00,,---,0.16,VWS V14.01,2013-02-08 02:15:00,
2013-02-07 18:20:00,47.5,35.1,29.59,SSW,202,0.0,0.0,62,0.00,,---,0.16,VWS V14.01,2013-02-08 02:20:00,
2013-02-07 18:25:00,47.5,35.1,29.59,SSW,202,0.0,0.0,62,0.00,,---,0.16,VWS V14.01,2013-02-08 02:25:00,
2013-02-07 18:30:00,47.5,35.1,29.59,SSW,202,0.0,0.0,62,0.00,,---,0.16,VWS V14.01,2013-02-08 02:30:00,
2013-02-07 18:35:00,40.8,33.5,29.59,SSW,202,0.0,0.0,75,0.00,,---,0.16,VWS V14.01,2013-02-08 02:35:00,
2013-02-07 18:40:00,40.6,33.7,29.59,SSW,202,0.0,0.0,76,0.00,,---,0.16,VWS V14.01,2013-02-08 02:40:00,
2013-02-07 18:45:00,40.6,33.7,29.59,SSW,202,0.0,0.0,76,0.00,,---,0.16,VWS V14.01,2013-02-08 02:45:00,
2013-02-07 18:50:00,40.6,33.7,29.62,SSW,202,0.0,0.0,76,0.00,,---,0.16,VWS V14.01,2013-02-08 02:50:00,
2013-02-07 18:55:00,40.6,33.7,29.62,SSW,202,0.0,0.0,76,0.00,,---,0.16,VWS V14.01,2013-02-08 02:55:00,
2013-02-07 19:00:00,40.6,33.7,29.62,SSW,202,0.0,0.0,76,0.00,,---,0.16,VWS V14.01,2013-02-08 03:00:00,
2013-02-07 19:05:00,39.9,33.6,29.62,SSW,202,0.0,0.0,78,0.00,,---,0.16,VWS V14.01,2013-02-08 03:05:00,
2013-02-07 19:10:00,39.6,33.3,29.62,SSW,202,0.0,0.0,78,0.00,,---,0.16,VWS V14.01,2013-02-08 03:10:00,
2013-02-07 19:15:00,39.6,33.3,29.62,SSW,202,0.0,0.0,78,0.00,,---,0.16,VWS V14.01,2013-02-08 03:15:00,
2013-02-07 19:20:00,38.8,32.9,29.62,SSW,202,0.0,0.0,79,0.00,,---,0.16,VWS V14.01,2013-02-08 03:20:00,
2013-02-07 19:24:00,38.7,32.7,29.62,SSW,202,0.0,0.0,79,0.00,,---,0.16,VWS V14.01,2013-02-08 03:24:00,
2013-02-07 19:29:00,38.7,33.0,29.62,SSW,202,0.0,0.0,80,0.00,,---,0.16,VWS V14.01,2013-02-08 03:29:00,
2013-02-07 19:34:00,38.7,33.0,29.62,SSW,202,0.0,0.0,80,0.00,,---,0.16,VWS V14.01,2013-02-08 03:34:00,
2013-02-07 19:39:00,38.7,33.3,29.62,SSW,202,0.0,0.0,81,0.00,,---,0.16,VWS V14.01,2013-02-08 03:39:00,
2013-02-07 19:44:00,38.1,32.8,29.62,SSW,202,0.0,0.0,81,0.00,,---,0.16,VWS V14.01,2013-02-08 03:44:00,
2013-02-07 19:49:00,38.1,32.8,29.62,SSW,202,0.0,0.0,81,0.00,,---,0.16,VWS V14.01,2013-02-08 03:49:00,
2013-02-07 19:54:00,38.1,32.8,29.62,SSW,202,0.0,0.0,81,0.00,,---,0.16,VWS V14.01,2013-02-08 03:54:00,
2013-02-07 19:59:00,37.6,32.3,29.62,SSW,202,0.0,0.0,81,0.00,,---,0.00,VWS V14.01,2013-02-08 03:59:00,
2013-02-07 20:04:00,37.4,32.4,29.62,SSW,202,0.0,0.0,82,0.00,,---,0.16,VWS V14.01,2013-02-08 04:04:00,
2013-02-07 20:09:00,37.4,32.4,29.62,SSW,202,0.0,0.0,82,0.00,,---,0.16,VWS V14.01,2013-02-08 04:09:00,
2013-02-07 20:14:00,37.4,32.4,29.62,SSW,202,0.0,0.0,82,0.00,,---,0.16,VWS V14.01,2013-02-08 04:14:00,
2013-02-07 20:19:00,37.4,32.4,29.62,SSW,202,0.0,0.0,82,0.00,,---,0.16,VWS V14.01,2013-02-08 04:19:00,
2013-02-07 20:24:00,36.7,32.0,29.62,SSW,202,0.0,0.0,83,0.00,,---,0.16,VWS V14.01,2013-02-08 04:24:00,
2013-02-07 20:29:00,36.7,32.0,29.65,SSW,202,0.0,0.0,83,0.00,,---,0.16,VWS V14.01,2013-02-08 04:29:00,
2013-02-07 20:34:00,36.7,32.0,29.65,SSW,202,0.0,0.0,83,0.00,,---,0.16,VWS V14.01,2013-02-08 04:34:00,
2013-02-07 20:39:00,36.7,32.0,29.65,SSW,202,0.0,0.0,83,0.00,,---,0.16,VWS V14.01,2013-02-08 04:39:00,
2013-02-07 20:44:00,36.7,32.0,29.65,SSW,202,0.0,0.0,83,0.00,,---,0.16,VWS V14.01,2013-02-08 04:44:00,
2013-02-07 20:49:00,36.1,31.8,29.65,SSW,202,0.0,0.0,84,0.00,,---,0.16,VWS V14.01,2013-02-08 04:49:00,
2013-02-07 20:54:00,36.1,31.8,29.65,SSW,202,0.0,0.0,84,0.00,,---,0.16,VWS V14.01,2013-02-08 04:54:00,
2013-02-07 20:59:00,36.1,31.8,29.65,SSW,202,0.0,0.0,84,0.00,,---,0.16,VWS V14.01,2013-02-08 04:59:00,
2013-02-07 21:00:00,36.1,31.8,29.65,SSW,202,0.0,0.0,84,0.00,,---,0.16,VWS V14.01,2013-02-08 05:00:00,
2013-02-07 21:05:00,36.1,31.8,29.65,SSW,202,0.0,0.0,84,0.00,,---,0.16,VWS V14.01,2013-02-08 05:05:00,
2013-02-07 21:10:00,36.1,31.8,29.65,SSW,202,0.0,0.0,84,0.00,,---,0.16,VWS V14.01,2013-02-08 05:10:00,
2013-02-07 21:15:00,36.1,31.8,29.65,SSW,202,0.0,0.0,84,0.00,,---,0.16,VWS V14.01,2013-02-08 05:15:00,
2013-02-07 21:20:00,35.4,31.7,29.65,SSW,202,0.0,0.0,86,0.00,,---,0.16,VWS V14.01,2013-02-08 05:20:00,
2013-02-07 21:25:00,35.2,31.5,29.65,SSW,202,0.0,0.0,86,0.00,,---,0.16,VWS V14.01,2013-02-08 05:25:00,
2013-02-07 21:30:00,35.2,31.5,29.65,SSW,202,0.0,0.0,86,0.00,,---,0.16,VWS V14.01,2013-02-08 05:30:00,
2013-02-07 21:35:00,35.2,31.8,29.65,SSW,202,0.0,0.0,87,0.00,,---,0.16,VWS V14.01,2013-02-08 05:35:00,
2013-02-07 21:40:00,35.2,31.8,29.65,SSW,202,0.0,0.0,87,0.00,,---,0.16,VWS V14.01,2013-02-08 05:40:00,
2013-02-07 21:45:00,35.2,31.8,29.65,SSW,202,0.0,0.0,87,0.00,,---,0.16,VWS V14.01,2013-02-08 05:45:00,
2013-02-07 21:50:00,35.2,31.8,29.65,SSW,202,0.0,0.0,87,0.00,,---,0.16,VWS V14.01,2013-02-08 05:50:00,
2013-02-07 21:55:00,35.2,31.8,29.65,SSW,202,0.0,0.0,87,0.00,,---,0.16,VWS V14.01,2013-02-08 05:55:00,
2013-02-07 22:00:00,35.2,31.8,29.68,SSW,202,0.0,0.0,87,0.00,,---,0.16,VWS V14.01,2013-02-08 06:00:00,
2013-02-07 22:05:00,35.2,31.8,29.68,SSW,202,0.0,0.0,87,0.00,,---,0.16,VWS V14.01,2013-02-08 06:05:00,
2013-02-07 22:10:00,35.2,31.8,29.68,SSW,202,0.0,0.0,87,0.00,,---,0.16,VWS V14.01,2013-02-08 06:10:00,
2013-02-07 22:15:00,35.2,31.8,29.68,SSW,202,0.0,0.0,87,0.00,,---,0.16,VWS V14.01,2013-02-08 06:15:00,
2013-02-07 22:20:00,35.2,31.8,29.68,SSW,202,0.0,0.0,87,0.00,,---,0.16,VWS V14.01,2013-02-08 06:20:00,
2013-02-07 22:25:00,35.2,31.8,29.68,SSW,202,0.0,0.0,87,0.00,,---,0.16,VWS V14.01,2013-02-08 06:25:00,
2013-02-07 22:30:00,35.2,31.8,29.68,SSW,202,0.0,0.0,87,0.00,,---,0.16,VWS V14.01,2013-02-08 06:30:00,
2013-02-07 22:35:00,35.2,31.8,29.68,SSW,202,0.0,0.0,87,0.00,,---,0.16,VWS V14.01,2013-02-08 06:35:00,
2013-02-07 22:40:00,35.2,31.8,29.68,SSW,202,0.0,0.0,87,0.00,,---,0.16,VWS V14.01,2013-02-08 06:40:00,
2013-02-07 22:45:00,35.2,31.8,29.68,SSW,202,0.0,0.0,87,0.00,,---,0.16,VWS V14.01,2013-02-08 06:45:00,
2013-02-07 22:50:00,35.2,31.8,29.68,SSW,202,0.0,0.0,87,0.00,,---,0.16,VWS V14.01,2013-02-08 06:50:00,
2013-02-07 22:55:00,35.2,31.8,29.68,SSW,202,0.0,0.0,87,0.00,,---,0.16,VWS V14.01,2013-02-08 06:55:00,
2013-02-07 23:00:00,35.2,31.8,29.68,SSW,202,0.0,0.0,87,0.00,,---,0.16,VWS V14.01,2013-02-08 07:00:00,
2013-02-07 23:05:00,35.2,31.8,29.68,SSW,202,0.0,0.0,87,0.00,,---,0.16,VWS V14.01,2013-02-08 07:05:00,
2013-02-07 23:10:00,35.2,31.8,29.68,SSW,202,0.0,0.0,87,0.00,,---,0.16,VWS V14.01,2013-02-08 07:10:00,
2013-02-07 23:15:00,35.2,31.8,29.68,SSW,202,0.0,0.0,87,0.00,,---,0.16,VWS V14.01,2013-02-08 07:15:00,
2013-02-07 23:20:00,35.2,31.8,29.68,SSW,202,0.0,0.0,87,0.00,,---,0.16,VWS V14.01,2013-02-08 07:20:00,
2013-02-07 23:25:00,35.2,31.8,29.68,SSW,202,0.0,0.0,87,0.00,,---,0.16,VWS V14.01,2013-02-08 07:25:00,
2013-02-07 23:30:00,35.2,31.8,29.68,SSW,202,0.0,0.0,87,0.00,,---,0.16,VWS V14.01,2013-02-08 07:30:00,
2013-02-07 23:35:00,35.2,31.8,29.68,SSW,202,0.0,0.0,87,0.00,,---,0.16,VWS V14.01,2013-02-08 07:35:00,
2013-02-07 23:40:00,35.2,31.8,29.68,SSW,202,0.0,0.0,87,0.00,,---,0.16,VWS V14.01,2013-02-08 07:40:00,
2013-02-07 23:45:00,35.2,31.8,29.68,SSW,202,0.0,0.0,87,0.00,,---,0.16,VWS V14.01,2013-02-08 07:45:00,
2013-02-07 23:50:00,35.2,31.8,29.71,SSW,202,0.0,0.0,87,0.00,,---,0.16,VWS V14.01,2013-02-08 07:50:00,
2013-02-07 23:55:00,35.2,31.8,29.71,SSW,202,0.0,0.0,87,0.00,,---,0.16,VWS V14.01,2013-02-08 07:55:00,